Regional Weather Roundup
Issued by NWS

Home | Current Version | Previous Version | Text Only | Print | Product List | Glossary Off
Versions: 1 2 3 4 5 6 7 8 9 10 11 12 13 14 15 16 17 18 19 20 21 22 23 24 25 26 27 28 29 30 31 32 33 34 35 36 37 38 39 40 41 42 43 44 45 46 47 48 49 50

000
ASUS43 KBIS 061020
RWRND

NORTH DAKOTA REGIONAL WEATHER ROUNDUP
NATIONAL WEATHER SERVICE BISMARCK ND
500 AM CDT WED MAY 06 2015

NOTE: "FAIR" INDICATES FEW OR NO CLOUDS BELOW 12,000 FEET WITH NO
SIGNIFICANT WEATHER AND/OR OBSTRUCTIONS TO VISIBILITY.


NDZ001>003-009>011-017-061100-
NORTHWEST NORTH DAKOTA

CITY           SKY/WX    TMP DP  RH WIND       PRES   REMARKS
WILLISTON      CLEAR     58  51  78 S8        29.70S
MINOT          PTCLDY    55  50  83 SE9       29.78F
$$

NDZ018>021-031>035-040>046-061100-
SOUTHWEST NORTH DAKOTA

CITY           SKY/WX    TMP DP  RH WIND       PRES   REMARKS
BISMARCK       CLOUDY    58  30  34 SE9       29.82F
DICKINSON      CLOUDY    56  53  90 SE16      29.73S
GARRISON         N/A     58  54  86 SE14      29.78F
HETTINGER ARPT CLOUDY    56  53  90 SE16      29.77S
$$

NDZ004>008-012>016-024-026-027-054-061100-
NORTHEAST NORTH DAKOTA

CITY           SKY/WX    TMP DP  RH WIND       PRES   REMARKS
GRAND FORKS    MOCLDY    59  52  77 S12       29.93F
GRND FRKS AFB  CLOUDY    59  54  82 S13       29.92F
DEVILS LAKE    CLOUDY    57  52  82 SE14      29.87F
$$

NDZ022-023-025-028>030-036>039-047>053-061100-
SOUTHEAST NORTH DAKOTA

CITY           SKY/WX    TMP DP  RH WIND       PRES   REMARKS
FARGO          CLOUDY    60  55  83 S16G23    29.94S
JAMESTOWN      CLOUDY    57  55  93 SE12      29.89S
$$




USA.gov is the U.S. government's official web portal to all federal, state and local government web resources and services.